Skip Page Navigation
NASA JPL Caltech
NASA Logo - Jet Propulsion Laboratory + View the NASA Portal
+ Center for Near-Earth Object Studies
JPL Home Earth Solar System Stars & Galaxies Technology
JPL Solar System Dynamics
BODIES ORBITS EPHEMERIDES TOOLS PHYSICAL DATA DISCOVERY FAQ SITE MAP
JPL Small-Body Database Browser
Search: [ help ]  
437558 (2013 YY150)
Classification: Main-belt Asteroid          SPK-ID: 2437558
Ephemeris | Orbit Diagram | Orbital Elements | Mission Design | Physical Parameters | Discovery Circumstances | Close-Approach Data ]

[ show orbit diagram ]
Orbital Elements at Epoch 2459000.5 (2020-May-31.0) TDB
Reference: JPL 15 (heliocentric ecliptic J2000)
 Element Value Uncertainty (1-sigma)   Units 
e .2199886736804366 6.7593e-08  
a 3.050241606535303 4.845e-08 au
q 2.379223001108717 2.1332e-07 au
i 8.655431082478977 7.9919e-06 deg
node 102.3524311489846 4.8841e-05 deg
peri 320.8274893695272 5.2144e-05 deg
M 99.67832155523476 1.7135e-05 deg
tp 2458461.736700873603
(2018-Dec-09.23670087)
8.9121e-05 TDB
period 1945.807118933345
5.33
4.6361e-05
1.269e-07
d
yr
n .185013199148611 4.4082e-09 deg/d
Q 3.721260211961888 5.9109e-08 au
  Orbit Determination Parameters
   # obs. used (total)      120  
   data-arc span      4572 days (12.52 yr)  
   first obs. used      2007-10-11  
   last obs. used      2020-04-17  
   planetary ephem.      DE431  
   SB-pert. ephem.      SB431-N16  
   condition code      0  
   norm. resid. RMS      .56708  
   source      ORB  
   producer      Otto Matic  
   solution date      2020-May-22 03:41:58  

Additional Information
 Earth MOID = 1.40017 au 
 Jupiter MOID = 1.63098 au 
 T_jup = 3.183 
[ show covariance matrix ]

Ephemeris | Orbit Diagram | Orbital Elements | Mission Design | Physical Parameters | Discovery Circumstances | Close-Approach Data ]

Physical Parameter Table
Parameter Symbol Value Units Sigma Reference Notes
absolute magnitude H 16.4   n/a MPO472429  

437558 (2013 YY150)          Discovered 2008-Nov-01 by Mt. Lemmon Survey at Mount Lemmon
Reference: Last Updated: 2015-06-04

[ hide close-approach data ]
Close-Approach Data   ...sorted by Date/Time (TDB)
Date/Time (TDB) Time Uncertainty
(days_HH:MM)
Body Nominal Distance (au) Minimum Distance (au) Maximum Distance (au) V-relative (km/s) V-infinity (km/s) JD (TDB) Time Uncertainty (minutes) Semi-major axis (km) Semi-minor axis (km) range-LOV angle (deg) N-sigma BP Orbit Ref. Reference Modified
1936-Jun-22 12:16 00:06 Jupiter 1.65136292253793 1.65136222678761 1.65136361829773 1.97676345314226 1.69757095710975 2428342.011320824 6.16645343909798 538.776855351092 100.387362568532 -82.6326439939146 927426.797049124 T 15 CATAB v2.0f-lin.ifort 2020-May-22 03:42:00 2020-May-22 03:42
1985-Mar-24 07:25 00:03 Jupiter 1.84350019391502 1.84349855554644 1.84350183229031 2.78464398033644 2.61444325018531 2446148.809211603 2.56418771691036 219.980565057933 19.3340051137152 75.4495353295858 1320997.00755679 T 15 CATAB v2.0f-lin.ifort 2020-May-22 03:42:00 2020-May-22 03:42
1994-Sep-15 05:36 00:02 Jupiter 1.78737831100373 1.78737722467788 1.78737939733801 1.61851197986634 1.29298066725208 2449610.733271529 1.83175872795762 431.651380951242 135.603017430052 79.3263065473678 1067318.5679083 T 15 CATAB v2.0f-lin.ifort 2020-May-22 03:42:00 2020-May-22 03:42
2043-Jun-19 06:45 00:02 Jupiter 1.64410252985635 1.64410185326135 1.64410320645416 2.08577281569945 1.82210633127808 2467419.781240164 2.07542532061815 265.911677388292 66.5141873607737 86.781622911848 1071821.28904995 T 15 CATAB v2.0f-lin.ifort 2020-May-22 03:42:00 2020-May-22 03:42
2092-Mar-23 17:58 00:06 Jupiter 1.87860976213565 1.87860655089131 1.87861297341 2.87355066504305 2.71210965944778 2485230.248471887 5.97086999192236 430.576743710111 21.2429905535144 75.1960814607525 1341689.47289423 T 15 CATAB v2.0f-lin.ifort 2020-May-22 03:42:00 2020-May-22 03:42
2101-Sep-17 22:01 00:07 Jupiter 1.74216388611715 1.74216086393838 1.74216690834078 1.73035499633517 1.42188205510629 2488694.417681164 6.83437612669184 612.087040899601 118.598355141768 69.3726154670742 1063146.02252309 T 15 CATAB v2.0f-lin.ifort 2020-May-22 03:42:00 2020-May-22 03:42
2150-Jun-17 18:02 00:10 Jupiter 1.64045110569626 1.64044925959708 1.64045295202203 2.16185226109676 1.9081234137515 2506499.251682215 10.2385814726016 1085.951174998 58.0099757811171 -89.9664212352815 1064281.5406346 T 15 CATAB v2.0f-lin.ifort 2020-May-22 03:42:00 2020-May-22 03:42
2199-Mar-28 15:59 00:14 Jupiter 1.9211108476386 1.92110283682339 1.92111885858814 2.97702203481277 2.82504075331734 2524315.166147375 14.4823388180823 923.485772540335 22.6228681379509 72.1160321328164 1338480.38837748 T 15 CATAB v2.0f-lin.ifort 2020-May-22 03:42:00 2020-May-22 03:42
Ephemeris | Orbit Diagram | Orbital Elements | Mission Design | Physical Parameters | Discovery Circumstances | Close-Approach Data ]
ABOUT SSD CREDITS/AWARDS PRIVACY/COPYRIGHT GLOSSARY LINKS
FirstGov 2020-Aug-09 00:25 UT
(server date/time)  
NASA Home Page
Site Manager:   Ryan S. Park
Webmaster  Alan B. Chamberlin